TimeAKST,TemperatureF,Dew PointF,Humidity,Sea Level PressureIn,VisibilityMPH,Wind Direction,Wind SpeedMPH,Gust SpeedMPH,PrecipitationIn,Events,Conditions,WindDirDegrees,DateUTC
12:53 AM,19.0,5.0,54,29.80,10.0,East,4.6,-,N/A,,Clear,80,2013-02-19 09:53:00
1:53 AM,18.0,5.0,57,29.81,10.0,NNE,3.5,-,N/A,,Clear,20,2013-02-19 10:53:00
3:53 AM,19.0,7.0,59,29.77,10.0,NE,8.1,-,N/A,,Scattered Clouds,40,2013-02-19 12:53:00
4:53 AM,19.0,7.0,59,29.72,10.0,NNE,5.8,-,N/A,,Overcast,30,2013-02-19 13:53:00
5:53 AM,19.0,8.1,62,29.71,10.0,NE,5.8,-,N/A,,Overcast,50,2013-02-19 14:53:00
6:53 AM,19.9,9.0,62,29.69,10.0,NNE,3.5,-,N/A,,Overcast,30,2013-02-19 15:53:00
7:53 AM,19.9,9.0,62,29.66,10.0,Calm,Calm,-,N/A,,Overcast,0,2013-02-19 16:53:00
8:53 AM,19.9,8.1,60,29.62,10.0,North,3.5,-,N/A,,Overcast,10,2013-02-19 17:53:00
9:53 AM,21.0,10.0,63,29.59,10.0,Calm,Calm,-,N/A,,Overcast,0,2013-02-19 18:53:00
10:53 AM,23.0,10.9,60,29.55,10.0,Calm,Calm,-,N/A,,Overcast,0,2013-02-19 19:53:00
11:53 AM,23.0,12.9,65,29.50,10.0,Calm,Calm,-,N/A,,Overcast,0,2013-02-19 20:53:00
12:53 PM,24.1,14.0,65,29.45,10.0,Calm,Calm,-,N/A,,Overcast,0,2013-02-19 21:53:00
1:53 PM,24.1,14.0,65,29.37,10.0,West,3.5,-,N/A,,Overcast,270,2013-02-19 22:53:00
3:53 PM,26.1,19.0,75,29.28,10.0,WNW,3.5,-,0.00,,Overcast,290,2013-02-20 00:53:00
4:53 PM,26.1,19.9,78,29.24,10.0,East,5.8,-,N/A,,Overcast,100,2013-02-20 01:53:00
5:53 PM,27.0,21.0,78,29.20,10.0,ENE,15.0,-,N/A,,Overcast,60,2013-02-20 02:53:00
6:53 PM,28.9,24.1,82,29.17,5.0,ENE,12.7,-,0.00,Snow,Light Snow,70,2013-02-20 03:53:00
7:35 PM,28.4,23.0,80,29.15,3.0,ENE,17.3,-,0.00,Snow,Light Snow,60,2013-02-20 04:35:00
7:53 PM,28.0,23.0,81,29.15,3.0,ENE,17.3,-,0.00,Snow,Light Snow,70,2013-02-20 04:53:00
8:06 PM,28.4,24.8,86,29.14,2.0,ENE,17.3,-,0.00,Snow,Light Snow,60,2013-02-20 05:06:00
8:40 PM,28.4,24.8,86,29.14,2.0,ENE,15.0,-,0.00,Snow,Light Snow,70,2013-02-20 05:40:00
8:49 PM,28.4,24.8,86,29.14,3.0,ENE,15.0,-,0.00,Snow,Light Snow,70,2013-02-20 05:49:00
8:53 PM,28.9,24.1,82,29.14,3.0,ENE,13.8,-,0.00,,Haze,70,2013-02-20 05:53:00
9:53 PM,30.0,25.0,82,29.13,9.0,ENE,13.8,-,0.00,,Overcast,60,2013-02-20 06:53:00
10:53 PM,28.9,24.1,82,29.12,10.0,NE,12.7,-,N/A,,Overcast,50,2013-02-20 07:53:00
11:53 PM,28.0,23.0,81,29.12,10.0,NE,15.0,-,N/A,,Overcast,50,2013-02-20 08:53:00